Weather History for Vancouver, BC

Change the Weather History Date:

Sunday, February 17, 2013

  Actual Average Record
Temperature  
Mean Temperature 42 °F -  
Max Temperature 45 °F 44 °F 55 °F (2007)
Min Temperature 38 °F 34 °F 26 °F (2005)
Degree Days  
Heating Degree Days 24    
Moisture  
Dew Point 33 °F    
Average Humidity 68    
Maximum Humidity 76    
Minimum Humidity 57    
Precipitation  
Precipitation 0.00 in - - ()
Sea Level Pressure  
Sea Level Pressure 30.19 in    
Wind  
Wind Speed 11 mph ()    
Max Wind Speed 24 mph    
Max Gust Speed 30 mph    
Visibility 18.6 miles    
Events      
Averages and records for this station are not official NWS values.
T = Trace of Precipitation, MM = Missing Value Source: Averaged Metar Reports

Daily Weather History Graph

Daily Weather History Graph

Search for Another Location

Airport:

Trip Planner

Search our weather history database for the weather conditions in past years. The results will help you decide how hot, cold, wet, or windy it might be!

Date:

Astronomy

Feb. 17, 2013 Rise Set
Actual Time 7:17 AM PST 5:36 PM PST
Civil Twilight 6:44 AM PST 6:09 PM PST
Nautical Twilight 6:07 AM PST 6:46 PM PST
Astronomical Twilight 5:30 AM PST 7:23 PM PST
Moon 10:31 AM PST (2/17) 1:18 AM PST (2/17)
Length of Visible Light 11h 24m
Length of Day
10h 19m
Waxing Crescent, 50% of the Moon is Illuminated
Feb 17
Waxing Crescent
Feb 17
First Quarter
Feb 25
Full
Mar 4
Last Quarter
Mar 11
New

Hourly Weather History & Observations

Time (PST) Temp. Windchill Dew Point Humidity Pressure Visibility Wind Dir Wind Speed Gust Speed Precip Events Conditions
12:00 AM 42.8 °F 34.3 °F 33.8 °F 70% 30.15 in 20.0 mi West 19.6 mph - N/A   Partly Cloudy
1:00 AM 42.8 °F 33.3 °F 33.8 °F 70% 30.17 in 20.0 mi WNW 24.2 mph 29.9 mph N/A   Partly Cloudy
2:00 AM 41.0 °F 32.5 °F 33.8 °F 76% 30.18 in 20.0 mi WNW 17.3 mph 23.0 mph N/A   Partly Cloudy
3:00 AM 41.0 °F 31.9 °F 32.0 °F 70% 30.19 in 20.0 mi WNW 19.6 mph - N/A   Scattered Clouds
4:00 AM 40 °F - 32 °F 63% 30.18 in 19 mi WNW 11.5 mph - -   Partly Cloudy
4:00 AM 39.2 °F 32.0 °F 32.0 °F 75% 30.18 in 20.0 mi WNW 11.5 mph - N/A   Scattered Clouds
5:00 AM 41.0 °F 33.1 °F 33.8 °F 76% 30.19 in 15.0 mi West 15.0 mph - N/A   Scattered Clouds
6:00 AM 41.0 °F 34.3 °F 32.0 °F 70% 30.19 in 15.0 mi West 11.5 mph - N/A   Scattered Clouds
7:00 AM 39.2 °F 31.6 °F 32.0 °F 75% 30.19 in 15.0 mi West 12.7 mph - N/A   Scattered Clouds
8:00 AM 41.0 °F 33.1 °F 32.0 °F 70% 30.21 in 20.0 mi West 15.0 mph - N/A   Scattered Clouds
9:00 AM 42.8 °F 35.4 °F 33.8 °F 70% 30.22 in 20.0 mi WNW 15.0 mph - N/A   Scattered Clouds
10:00 AM 43 °F - 34 °F 60% 30.23 in 19 mi WNW 10.4 mph - -   Partly Cloudy
10:00 AM 42.8 °F 36.6 °F 33.8 °F 70% 30.23 in 20.0 mi WNW 11.5 mph - N/A   Mostly Cloudy
11:00 AM 42.8 °F 39.3 °F 33.8 °F 70% 30.23 in 20.0 mi WNW 5.8 mph - N/A   Mostly Cloudy
12:00 PM 44.6 °F 41.4 °F 33.8 °F 66% 30.24 in 20.0 mi West 5.8 mph - N/A   Mostly Cloudy
1:00 PM 44.6 °F 41.4 °F 33.8 °F 66% 30.24 in 20.0 mi West 5.8 mph - N/A   Mostly Cloudy
2:00 PM 44.6 °F 41.4 °F 33.8 °F 66% 30.23 in 20.0 mi West 5.8 mph - N/A   Mostly Cloudy
3:00 PM 44.6 °F 43.1 °F 32.0 °F 61% 30.21 in 20.0 mi SW 3.5 mph - N/A   Mostly Cloudy
4:00 PM 44 °F - 34 °F 57% 30.21 in 19 mi West 3.5 mph - -   Mostly Cloudy
4:00 PM 44.6 °F 43.1 °F 33.8 °F 66% 30.21 in 20.0 mi West 3.5 mph - N/A   Mostly Cloudy
5:00 PM 42.8 °F - 33.8 °F 70% 30.19 in 20.0 mi Calm Calm - N/A   Mostly Cloudy
6:00 PM 42.8 °F - 32.0 °F 66% 30.18 in 20.0 mi Calm Calm - N/A   Mostly Cloudy
7:00 PM 42.8 °F - 32.0 °F 66% 30.18 in 20.0 mi Calm Calm - N/A   Mostly Cloudy
8:00 PM 42.8 °F - 32.0 °F 66% 30.17 in 20.0 mi Calm Calm - N/A   Mostly Cloudy
9:00 PM 41.0 °F 39.0 °F 32.0 °F 70% 30.17 in 15.0 mi East 3.5 mph - N/A   Mostly Cloudy
10:00 PM 40 °F - 33 °F 66% 30.16 in 15 mi NNE 5.8 mph - -   Partly Cloudy
10:00 PM 41.0 °F 37.1 °F 32.0 °F 70% 30.16 in 15.0 mi East 5.8 mph - N/A   Mostly Cloudy
11:00 PM 41.0 °F 35.8 °F 33.8 °F 76% 30.14 in 15.0 mi East 8.1 mph - N/A   Mostly Cloudy